******************************************************************************* JPL/HORIZONS SOHO (C/2023 F2) 2025-Dec-12 17:54:47 Rec #:90004793 (+COV) Soln.date: 2025-Feb-28_10:03:47 # obs: 82 (span: n.a.) IAU76/J2000 helio. ecliptic osc. elements (au, days, deg., period=Julian yrs): EPOCH= 2460024.5 ! 2023-Mar-21.0000000 (TDB) RMSW= n.a. EC= 1.011896494756069 QR= .03424027660790128 TP= 2460024.666246044 OM= 71.42243667796353 W= 57.76509771607653 IN= 72.56745229704377 A= -2.878181961155731 MA= -.03355660556033113 ADIST= 9.999999E99 PER= 9.999999E99 N= .201849047 ANGMOM= .004514949 DAN= .04474 DDN= .14967 L= 96.83423929999999 B= 53.8055891 MOID= .52359599 TP= 2023-Mar-21.1662460440 Comet physical (GM= km^3/s^2; RAD= km): GM= n.a. RAD= n.a. M1= 20.8 M2= n.a. k1= 10. k2= n.a. PHCOF= n.a. COMET comments 1: soln ref.= JPL#3, data arc: 2023-03-21 to 2023-03-21 2: k1=10.; ******************************************************************************* ******************************************************************************* Ephemeris / WWW_USER Fri Dec 12 17:54:47 2025 Pasadena, USA / Horizons ******************************************************************************* Target body name: SOHO (C/2023 F2) {source: JPL#3} Center body name: Solar System Barycenter (0) {source: DE441} Center-site name: BODY CENTER ******************************************************************************* Start time : A.D. 1800-Jan-01 00:00:00.0000 TDB Stop time : A.D. 2200-Jan-01 00:00:00.0000 TDB Step-size : 400 calendar years ******************************************************************************* Center geodetic : 0.0, 0.0, 0.0 {E-lon(deg),Lat(deg),Alt(km)} Center cylindric: 0.0, 0.0, 0.0 {E-lon(deg),Dxy(km),Dz(km)} Center radii : (undefined) Keplerian GM : 2.9630927493968080E-04 au^3/d^2 Small perturbers: Yes {source: SB441-N16} Output units : AU-D, deg, Julian Day Number (Tp) Calendar mode : Mixed Julian/Gregorian Output type : GEOMETRIC osculating elements Output format : 10 Reference frame : Ecliptic of J2000.0 ******************************************************************************* Initial IAU76/J2000 heliocentric ecliptic osculating elements (au, days, deg.): EPOCH= 2460024.5 ! 2023-Mar-21.0000000 (TDB) RMSW= n.a. EC= 1.011896494756069 QR= .03424027660790128 TP= 2460024.666246044 OM= 71.42243667796353 W= 57.76509771607653 IN= 72.56745229704377 Equivalent ICRF heliocentric cartesian coordinates (au, au/d): X= 6.766892158528083E-03 Y= 2.565395474082574E-02 Z= 2.657679405837536E-02 VX=-5.327333729419161E-02 VY=-9.924369011852896E-02 VZ= 5.634788350343933E-02 Comet physical (GM= km^3/s^2; RAD= km): GM= n.a. RAD= n.a. M1= 20.8 M2= n.a. k1= 10. k2= n.a. PHCOF= n.a. ******************************************************************************* JDTDB EC QR IN OM W Tp N MA TA A AD PR ******************************************************************************* $$SOE 2378496.500000000 = A.D. 1800-Jan-01 00:00:00.0000 TDB EC= 1.011486693193066E+00 QR= 3.318619542117776E-02 IN= 7.312729108385017E+01 OM= 7.276876556034154E+01 W = 5.755576481755821E+01 Tp= 2460024.339188821148 N = 2.008406359566874E-01 MA=-1.637410307085741E+04 TA= 1.886729103640478E+02 A =-2.889099139621260E+00 AD= 9.999999999999998E+99 PR= 9.999999999999998E+99 2524593.500000000 = A.D. 2200-Jan-01 00:00:00.0000 TDB EC= 1.012132344383262E+00 QR= 3.494333321686877E-02 IN= 7.161392439446959E+01 OM= 7.031510572815962E+01 W = 5.817700170331000E+01 Tp= 2460024.632296883035 N = 2.017743026903606E-01 MA= 1.302833825630261E+04 TA= 1.710813139075897E+02 A =-2.880179799791570E+00 AD= 9.999999999999998E+99 PR= 9.999999999999998E+99 $$EOE ******************************************************************************* TIME Barycentric Dynamical Time ("TDB" or T_eph) output was requested. This continuous coordinate time is equivalent to the relativistic proper time of a clock at rest in a reference frame co-moving with the solar system barycenter but outside the system's gravity well. It is the independent variable in the solar system relativistic equations of motion. TDB runs at a uniform rate of one SI second per second and is independent of irregularities in Earth's rotation. CALENDAR SYSTEM Mixed calendar mode was active such that calendar dates after AD 1582-Oct-15 (if any) are in the modern Gregorian system. Dates prior to 1582-Oct-5 (if any) are in the Julian calendar system, which is automatically extended for dates prior to its adoption on 45-Jan-1 BC. The Julian calendar is useful for matching historical dates. The Gregorian calendar more accurately corresponds to the Earth's orbital motion and seasons. A "Gregorian-only" calendar mode is available if such physical events are the primary interest. REFERENCE FRAME AND COORDINATES Ecliptic at the standard reference epoch Reference epoch: J2000.0 X-Y plane: adopted Earth orbital plane at the reference epoch Note: IAU76 obliquity of 84381.448 arcseconds wrt ICRF X-Y plane X-axis : ICRF Z-axis : perpendicular to the X-Y plane in the directional (+ or -) sense of Earth's north pole at the reference epoch. Symbol meaning [1 au= 149597870.700 km, 1 day= 86400.0 s]: JDTDB Julian Day Number, Barycentric Dynamical Time EC Eccentricity, e QR Periapsis distance, q (au) IN Inclination w.r.t X-Y plane, i (degrees) OM Longitude of Ascending Node, OMEGA, (degrees) W Argument of Perifocus, w (degrees) Tp Time of periapsis (Julian Day Number) N Mean motion, n (degrees/day) MA Mean anomaly, M (degrees) TA True anomaly, nu (degrees) A Semi-major axis, a (au) AD Apoapsis distance (au) PR Sidereal orbit period (day) ABERRATIONS AND CORRECTIONS Geometric osculating elements have NO corrections or aberrations applied. Computations by ... Solar System Dynamics Group, Horizons On-Line Ephemeris System 4800 Oak Grove Drive, Jet Propulsion Laboratory Pasadena, CA 91109 USA General site: https://ssd.jpl.nasa.gov/ Mailing list: https://ssd.jpl.nasa.gov/email_list.html System news : https://ssd.jpl.nasa.gov/horizons/news.html User Guide : https://ssd.jpl.nasa.gov/horizons/manual.html Connect : browser https://ssd.jpl.nasa.gov/horizons/app.html#/x API https://ssd-api.jpl.nasa.gov/doc/horizons.html command-line telnet ssd.jpl.nasa.gov 6775 e-mail/batch https://ssd.jpl.nasa.gov/ftp/ssd/horizons_batch.txt scripts https://ssd.jpl.nasa.gov/ftp/ssd/SCRIPTS Author : Jon.D.Giorgini@jpl.nasa.gov ******************************************************************************* !$$SOF CENTER = '@0' COMMAND = '2023 F2' OUT_UNITS = 'AU-D' START_TIME = '1800-01-01' STEP_SIZE = '400 years' STOP_TIME = '2200-01-01' TABLE_TYPE = 'ELEMENTS'